DW7898 Weather Reports


Display with metric or nautical units.
time (UTC)temp
F
wind
direction
speed
MPH
gust
MPH
rain 1hr
in
rain 24hr
in
rain mn
in
humidity
%
barometer
mb
20211208160338 54 251 6.0 21.0 0.00 0.00 0.00 38 1005.7
20211208155347 54 271 5.0 13.0 0.00 0.00 0.00 38 1005.7
20211208154341 54 289 7.0 16.0 0.00 0.00 0.00 38 1005.7
20211208153337 54 266 10.0 18.0 0.00 0.00 0.00 38 1005.4
20211208152348 54 277 7.0 13.0 0.00 0.00 0.00 39 1005.2
20211208151353 54 282 2.0 21.0 0.00 0.00 0.00 39 1005.2
20211208150344 54 294 10.0 24.0 0.00 0.00 0.00 39 1004.9
20211208145347 54 282 6.0 23.0 0.00 0.00 0.00 39 1004.9
20211208144344 54 270 8.0 25.0 0.00 0.00 0.00 40 1004.8
20211208143334 55 271 10.0 30.0 0.00 0.00 0.00 42 1004.6
20211208142354 55 293 9.0 17.0 0.00 0.00 0.00 42 1004.7
20211208141345 55 274 8.0 23.0 0.00 0.00 0.00 42 1004.7
20211208140345 55 277 10.0 20.0 0.00 0.00 0.00 42 1004.8
20211208135344 55 284 11.0 18.0 0.00 0.00 0.00 42 1004.9
20211208134352 55 247 10.0 18.0 0.00 0.00 0.00 42 1005.1
20211208133345 55 284 10.0 20.0 0.00 0.00 0.00 42 1005.1
20211208132342 55 259 15.0 22.0 0.00 0.00 0.00 42 1005.0
20211208131351 55 256 10.0 25.0 0.00 0.00 0.00 42 1005.0
20211208130346 55 263 13.0 31.0 0.00 0.00 0.00 40 1004.9
20211208125350 55 282 11.0 29.0 0.00 0.00 0.00 39 1004.7
20211208124343 55 254 14.0 24.0 0.00 0.00 0.00 38 1004.8
20211208123341 55 255 12.0 25.0 0.00 0.00 0.00 38 1004.6
20211208122350 55 279 12.0 26.0 0.00 0.00 0.00 39 1004.5
20211208121356 55 268 11.0 26.0 0.00 0.00 0.00 42 1004.7
20211208120338 55 270 14.0 27.0 0.00 0.00 0.00 42 1005.0
20211208115353 55 255 14.0 24.0 0.00 0.00 0.00 42 1005.2
20211208114333 55 280 13.0 27.0 0.00 0.00 0.00 42 1005.3
20211208113352 55 274 14.0 25.0 0.00 0.00 0.00 42 1005.3
20211208112345 55 290 11.0 30.0 0.00 0.00 0.00 42 1005.3
20211208111337 55 250 21.0 34.0 0.00 0.00 0.00 42 1005.4
20211208110343 55 279 10.0 25.0 0.00 0.00 0.00 42 1005.2
20211208105338 55 264 8.0 24.0 0.00 0.00 0.00 43 1005.3
20211208104347 55 271 10.0 20.0 0.00 0.00 0.00 42 1005.5
20211208103348 55 285 13.0 21.0 0.00 0.00 0.00 42 1005.6
20211208102337 55 297 9.0 19.0 0.00 0.00 0.00 42 1005.7
20211208101343 55 255 11.0 26.0 0.00 0.00 0.00 43 1005.5
20211208100335 55 287 13.0 24.0 0.00 0.00 0.00 45 1005.6
20211208095339 55 268 20.0 29.0 0.00 0.00 0.00 44 1005.6
20211208094345 55 258 12.0 19.0 0.00 0.00 0.00 45 1005.4
20211208090348 54 281 18.0 24.0 0.00 0.00 0.00 46 1004.8
20211208085350 54 277 10.0 20.0 0.00 0.00 0.00 47 1004.9
20211208084344 54 282 13.0 28.0 0.00 0.00 0.00 46 1005.3
20211208083339 54 274 8.0 22.0 0.00 0.00 0.00 46 1005.4
20211208082348 54 276 8.0 17.0 0.00 0.00 0.00 47 1005.5
20211208081350 54 287 9.0 16.0 0.00 0.00 0.00 46 1005.5
20211208080345 53 270 8.0 12.0 0.00 0.00 0.00 48 1005.6
20211208075346 53 260 5.0 8.0 0.00 0.00 0.00 51 1005.3
20211208074352 53 265 1.0 10.0 0.00 0.00 0.00 50 1005.0
20211208073349 54 268 5.0 9.0 0.00 0.00 0.00 49 1004.7
20211208072346 54 287 4.0 10.0 0.00 0.00 0.00 50 1004.6
20211208071350 53 242 2.0 10.0 0.00 0.00 0.00 52 1004.4
20211208070346 53 211 5.0 10.0 0.00 0.00 0.00 58 1004.5
20211208065343 53 260 4.0 6.0 0.00 0.00 0.00 63 1004.4
20211208064348 53 219 3.0 6.0 0.00 0.00 0.00 64 1004.4
20211208063344 54 252 5.0 10.0 0.00 0.00 0.00 64 1004.6
20211208062348 54 265 7.0 12.0 0.00 0.00 0.00 64 1004.3
20211208061343 54 263 8.0 18.0 0.00 0.00 0.00 64 1004.5
20211208060337 54 274 8.0 12.0 0.00 0.00 0.00 67 1004.3
20211208055347 54 272 3.0 10.0 0.00 0.00 0.00 67 1004.5
20211208054344 54 264 6.0 14.0 0.00 0.00 0.00 68 1004.6
20211208053342 53 250 7.0 11.0 0.00 0.00 0.00 69 1004.9
20211208052347 54 260 2.0 6.0 0.00 0.00 0.00 68 1004.6
20211208051343 54 253 5.0 10.0 0.00 0.00 0.00 67 1004.6
20211208050346 54 260 5.0 11.0 0.00 0.00 0.00 67 1004.1
20211208045348 55 240 5.0 12.0 0.00 0.00 0.00 68 1004.4
20211208044341 54 248 7.0 10.0 0.00 0.00 0.00 68 1004.4
20211208043337 54 251 6.0 8.0 0.00 0.00 0.00 70 1004.4
20211208042340 53 291 3.0 7.0 0.00 0.00 0.00 73 1004.2
20211208041346 52 245 4.0 9.0 0.00 0.00 0.00 77 1004.1
20211208040347 51 235 2.0 5.0 0.00 0.00 0.00 80 1004.4
20211208035340 50 222 1.0 4.0 0.00 0.00 0.00 81 1004.6
20211208034337 50 212 2.0 5.0 0.00 0.00 0.00 81 1004.7
20211208033346 50 242 0.0 6.0 0.00 0.00 0.00 80 1004.8
20211208032352 50 248 4.0 8.0 0.00 0.00 0.00 80 1004.5
20211208031354 50 184 0.0 4.0 0.00 0.00 0.00 81 1004.4
20211208030336 50 225 0.0 3.0 0.00 0.00 0.00 83 1004.8
20211208025346 50 233 3.0 4.0 0.00 0.00 0.00 82 1005.0
20211208024345 50 248 0.0 2.0 0.00 0.00 0.00 81 1004.9
20211208023338 51 224 0.0 0.0 0.00 0.00 0.00 80 1005.2
20211208022344 51 224 0.0 0.0 0.00 0.00 0.00 80 1005.1
20211208021342 51 224 0.0 2.0 0.00 0.00 0.00 80 1004.9
20211208020355 52 242 1.0 3.0 0.00 0.00 0.00 80 1005.1
20211208015345 51 253 0.0 1.0 0.00 0.00 0.00 82 1004.9
20211208014345 51 228 0.0 2.0 0.00 0.00 0.00 82 1004.9
20211208013339 51 228 0.0 3.0 0.00 0.00 0.00 81 1004.9
20211208012350 51 202 0.0 5.0 0.00 0.00 0.00 81 1004.9
20211208011344 51 199 2.0 4.0 0.00 0.00 0.00 81 1005.3
20211208010340 51 209 0.0 5.0 0.00 0.00 0.00 82 1005.5
20211208005347 52 158 1.0 2.0 0.00 0.00 0.00 82 1005.5
20211208004348 52 206 0.0 2.0 0.00 0.00 0.00 82 1005.5
20211208003344 51 204 0.0 0.0 0.00 0.00 0.00 82 1005.7
20211208002346 51 204 0.0 1.0 0.00 0.00 0.00 82 1005.8
20211208001348 52 204 0.0 2.0 0.00 0.00 0.00 82 1006.1
20211208000355 52 233 0.0 2.0 0.00 0.00 0.00 82 1006.1
20211207235343 52 244 0.0 0.0 0.00 0.00 0.00 83 1006.4
20211207234342 52 244 0.0 0.0 0.00 0.00 0.00 83 1006.7
20211207233342 52 244 0.0 0.0 0.00 0.00 0.00 83 1006.6
20211207232342 52 244 0.0 0.0 0.00 0.00 0.00 83 1006.8
20211207231344 52 244 0.0 0.0 0.00 0.00 0.00 84 1006.9
20211207230353 52 250 0.0 0.0 0.00 0.00 0.00 84 1006.9
20211207225343 52 247 2.0 3.0 0.00 0.00 0.00 84 1006.9
20211207224345 52 231 1.0 6.0 0.00 0.00 0.00 85 1007.0
20211207223351 52 244 1.0 6.0 0.00 0.00 0.00 85 1007.3
20211207222347 52 231 1.0 4.0 0.00 0.00 0.00 86 1007.6
20211207221353 52 223 2.0 4.0 0.00 0.00 0.00 85 1007.7
20211207220347 52 245 0.0 4.0 0.00 0.00 0.00 85 1007.8
20211207215346 52 231 1.0 4.0 0.00 0.00 0.00 85 1007.9
20211207214350 52 221 0.0 5.0 0.00 0.00 0.00 85 1008.3
20211207213356 52 203 0.0 2.0 0.00 0.00 0.00 85 1008.3
20211207212349 52 202 0.0 0.0 0.00 0.00 0.00 84 1008.6
20211207211346 52 186 0.0 0.0 0.00 0.00 0.00 84 1008.5
20211207210343 52 253 0.0 0.0 0.00 0.00 0.00 83 1008.8
20211207205345 53 253 0.0 1.0 0.00 0.00 0.00 82 1009.1
20211207204336 53 242 0.0 0.0 0.00 0.00 0.00 81 1009.3
20211207203338 54 242 0.0 0.0 0.00 0.00 0.00 81 1009.4
20211207202349 54 242 0.0 0.0 0.00 0.00 0.00 81 1009.5
20211207201350 54 243 0.0 0.0 0.00 0.00 0.00 81 1009.7
20211207200340 54 243 0.0 0.0 0.00 0.00 0.00 81 1009.6
20211207195347 54 242 0.0 0.0 0.00 0.00 0.00 80 1009.7
20211207194353 54 242 0.0 3.0 0.00 0.00 0.00 81 1009.5
20211207193348 54 212 0.0 5.0 0.00 0.00 0.00 80 1009.6
20211207192342 54 215 2.0 4.0 0.00 0.00 0.00 80 1009.8
20211207191346 53 232 1.0 4.0 0.00 0.00 0.00 79 1010.0
20211207190352 54 249 0.0 0.0 0.00 0.00 0.00 78 1010.0
20211207185344 54 249 0.0 1.0 0.00 0.00 0.00 78 1010.1
20211207184349 54 255 0.0 1.0 0.00 0.00 0.00 76 1010.2
20211207183350 54 257 0.0 0.0 0.00 0.00 0.00 76 1010.4
20211207182351 55 257 0.0 0.0 0.00 0.00 0.00 75 1010.8
20211207181352 55 255 2.0 4.0 0.00 0.00 0.00 75 1010.9
20211207180348 55 260 0.0 4.0 0.00 0.00 0.00 74 1010.8
20211207175352 55 246 0.0 0.0 0.00 0.00 0.00 73 1010.9
20211207174347 55 246 0.0 0.0 0.00 0.00 0.00 72 1011.0
20211207173344 55 245 0.0 3.0 0.00 0.00 0.00 72 1010.9
20211207172344 55 236 2.0 5.0 0.00 0.00 0.00 71 1010.7
20211207171346 55 218 0.0 4.0 0.00 0.00 0.00 69 1010.8
20211207170356 56 258 1.0 4.0 0.00 0.00 0.00 69 1011.1
20211207165348 56 234 1.0 6.0 0.00 0.00 0.00 68 1011.0
20211207164354 57 239 2.0 5.0 0.00 0.00 0.00 67 1011.1
20211207163340 57 224 3.0 5.0 0.00 0.00 0.00 67 1011.4
20211207162336 57 212 4.0 7.0 0.00 0.00 0.00 68 1011.7
20211207161346 57 232 0.0 6.0 0.00 0.00 0.00 68 1012.0